Theta_e
299 298 298 300 299 300 300 301 300 299 299 300 301 301 302 304 307 306 306 305 306 308 312 322 327 330 331 332 333 333 334 333 325 320 316 311 309 306
298 298 299 299 299 299 299 300 301 300 299 300 301 303 302 304 304 304 306 308 308 307 310 321 327 328 329 331 332 333 330 321 318 313 310 307 304 303
297 297 298 298 299 299 299 300 301 301 298 300 300 301 303 304 303 305 307 310 310 308 311 321 326 327 329 329 332 325 319 315 312 310 306 303 302 302
298 298 298 298 298 298 299 300 300 300 301 298 301 303 304 302 303 304 308 311 317 316 319 322 325 327 327 322 319 314 311 310 307 304 303 301 301 300
298 298 298 298 299 299 299 299 300 300 300 300 300 300 300 301 299 300 300 303 307 315 316 314 316 314 312 310 308 306 304 303 302 301 300 299 299 299
297 297 298 298 298 298 299 300 300 300 300 300 300 298 297 296 295 292 292 297 294 303 304 303 303 303 302 302 301 300 300 299 299 298 297 297 297 298
297 297 298 298 298 299 300 300 300 300 299 299 298 295 294 293 292 291 291 291 291 294 295 296 297 298 298 298 298 299 298 298 297 296 296 296 297 297
297 298 298 298 299 300 300 300 300 300 299 300 298 295 291 291 291 291 292 292 292 290 291 292 294 294 295 296 296 295 295 295 297 297 296 295 296 296
298 298 298 298 299 299 300 300 301 302 303 301 299 293 290 290 290 290 289 289 288 290 290 289 291 292 292 293 294 296 297 295 295 295 294 294 295 295
299 299 299 299 299 300 296 294 293 294 297 294 292 289 289 290 289 289 289 290 290 290 290 290 289 290 291 292 292 292 293 293 293 293 293 294 294 294
300 300 300 300 297 293 292 291 291 292 291 290 290 291 291 291 291 291 290 290 290 290 290 290 290 290 291 291 292 292 291 292 292 292 293 293 293 292
292 293 293 292 290 289 289 288 288 288 288 289 290 290 291 290 291 291 290 290 290 290 290 290 290 290 290 291 291 291 291 292 292 292 293 293 293 291
292 292 293 292 292 291 289 289 288 288 288 288 288 289 289 289 289 290 290 290 290 290 290 291 291 291 291 290 291 290 291 290 291 291 292 292 291 292
293 293 293 293 293 292 291 291 290 289 289 289 289 289 289 289 289 289 289 290 290 290 291 291 291 291 290 289 290 290 290 290 290 290 291 291 290 290
291 291 291 291 291 291 290 290 289 289 289 289 289 289 289 289 289 289 289 289 289 290 290 290 291 290 290 289 288 288 289 290 290 290 290 290 289 290
290 290 290 290 290 290 289 289 289 289 289 289 289 289 289 289 289 288 288 288 288 288 289 290 289 289 288 288 287 287 288 288 290 290 290 290 289 289
289 289 289 289 289 289 289 289 289 289 288 289 289 289 289 289 288 288 288 288 288 288 288 287 287 287 287 287 287 287 287 288 289 289 289 288 288 288
289 289 289 289 288 288 288 288 289 289 289 289 289 289 288 288 288 288 288 288 287 287 287 288 288 287 287 287 287 287 287 287 287 287 288 288 288 288
289 289 289 288 288 288 288 289 289 289 289 289 289 288 288 288 288 288 288 287 287 287 287 287 287 287 284 286 287 287 286 286 287 287 287 288 288 288
289 289 289 289 289 289 289 289 289 288 288 288 288 288 288 288 288 288 288 287 287 287 288 288 288 288 287 283 287 287 287 287 287 287 287 287 287 287
289 289 289 289 289 289 289 289 288 288 288 288 288 288 288 288 288 288 288 288 288 288 287 288 288 289 289 289 288 288 287 288 287 287 287 286 287 287
289 289 289 289 289 289 289 289 288 288 288 288 288 288 288 288 288 288 288 288 288 288 288 288 289 290 290 288 289 288 289 288 288 288 288 288 287 287
290 289 289 289 289 289 289 289 289 288 289 288 288 288 288 288 288 288 289 289 289 289 289 289 290 290 289 289 288 288 288 288 288 288 288 289 288 288
Wind_Speed
18 28 25 22 25 23 20 19 9 3 4 8 16 22 25 21 24 27 31 32 33 31 29 33 35 34 34 39 41 41 39 36 36 30 24 20 16 12
22 19 21 24 29 28 28 24 17 10 5 6 17 19 28 29 27 29 30 31 32 32 32 33 34 34 34 36 40 34 37 39 34 31 24 18 13 8
20 24 23 22 18 27 29 26 20 16 5 10 23 26 24 19 24 22 22 28 31 31 33 30 31 31 32 34 34 44 42 37 30 27 23 18 13 8
20 20 21 19 22 24 24 17 17 17 15 5 22 11 11 15 16 10 10 12 21 24 24 26 27 25 28 43 48 42 36 33 28 25 21 18 14 8
17 18 18 19 23 21 22 23 21 18 18 14 6 3 4 6 5 8 16 23 26 26 27 28 33 40 45 41 39 38 35 31 26 21 16 15 13 7
16 18 16 21 17 15 22 24 17 15 10 10 5 4 2 3 7 12 15 28 20 34 36 39 39 39 37 35 35 31 30 27 23 20 14 13 12 7
18 14 16 17 15 19 19 13 13 15 14 12 2 4 5 5 7 14 18 25 27 22 34 36 37 35 32 32 28 26 25 22 20 19 14 11 11 5
14 12 12 12 14 17 20 22 24 22 21 14 11 7 6 15 19 15 13 5 5 20 25 33 33 33 31 34 24 22 19 18 18 17 16 10 7 3
14 12 13 12 14 17 16 9 12 13 18 27 19 13 19 19 20 23 19 20 11 13 23 24 30 35 23 28 24 23 22 20 14 17 13 11 8 7
14 11 10 12 14 12 9 17 18 14 8 15 25 25 29 29 31 32 29 28 28 23 21 15 23 31 26 23 20 15 15 15 14 15 16 12 11 9
4 8 2 8 18 21 30 29 25 27 29 32 35 33 33 37 35 34 22 22 14 16 18 18 20 26 22 21 15 14 14 12 13 12 12 12 13 13
41 37 35 34 32 34 38 32 34 30 34 34 35 33 31 28 29 30 27 19 14 12 16 12 14 9 5 14 11 7 9 5 6 6 10 14 18 16
33 33 35 38 40 40 40 37 33 35 35 34 33 32 32 28 20 19 22 26 18 10 5 5 4 3 4 7 11 13 12 12 12 11 12 13 14 13
31 32 34 35 35 34 33 32 31 28 25 25 26 23 24 26 27 27 24 22 24 22 19 12 17 19 13 9 5 12 15 16 14 12 11 12 16 16
37 38 37 36 33 33 33 31 29 27 26 25 25 26 26 28 31 31 28 27 27 25 24 25 23 21 19 13 8 13 7 15 14 14 11 14 19 18
32 36 35 34 33 30 29 30 30 28 27 26 26 28 27 26 25 24 26 28 30 29 22 20 17 18 22 19 17 17 15 8 15 14 10 8 12 13
32 32 31 30 30 30 29 29 30 28 29 29 28 26 25 24 23 22 23 23 21 18 21 24 25 24 23 15 13 14 13 13 14 12 11 10 12 15
34 30 29 29 28 27 25 26 31 29 28 27 26 26 26 26 26 25 24 25 23 25 22 10 7 11 7 18 22 17 16 15 15 12 11 9 12 15
33 30 29 28 26 26 27 29 29 26 26 27 26 26 25 24 24 23 21 19 19 22 21 20 19 16 2 2 2 18 14 14 15 13 10 13 13 18
32 28 26 25 26 27 27 27 26 27 26 26 26 25 25 25 24 22 21 22 21 21 20 20 19 15 11 4 6 15 20 21 20 17 16 11 11 12
29 28 27 28 29 28 26 24 23 24 24 25 25 23 21 21 22 20 18 17 16 17 18 18 17 11 13 13 8 9 14 13 16 15 15 6 8 12
29 29 29 30 29 27 25 24 24 25 24 24 23 23 22 21 20 18 17 16 15 15 14 13 16 17 18 13 12 11 8 14 16 17 19 16 9 6
30 30 31 30 28 26 25 24 24 25 24 23 24 22 21 19 17 17 18 18 18 18 18 18 16 17 17 16 19 19 20 22 20 22 22 21 19 17
Wind_Direction
272 249 251 247 242 250 259 252 210 222 254 271 288 293 295 297 299 299 294 287 279 269 272 250 249 245 242 236 229 226 217 216 174 161 166 171 173 188
260 269 270 249 242 243 250 255 241 207 252 263 280 290 298 298 299 299 292 280 271 262 271 246 245 240 241 234 227 213 187 165 163 161 160 160 172 169
251 246 260 264 269 248 239 244 242 231 228 268 279 286 287 292 313 308 300 285 268 253 258 241 238 235 239 226 208 172 157 151 152 151 150 160 155 144
245 248 247 249 257 261 256 242 243 240 248 246 277 257 270 298 305 324 348 308 249 245 238 233 232 218 174 148 148 142 139 139 143 144 154 146 133 114
245 249 247 245 245 257 265 253 247 243 243 252 275 259 295 316 329 41 47 50 58 113 121 121 140 136 129 129 128 129 128 132 136 138 133 123 110 106
254 253 248 252 257 257 259 250 249 252 255 276 279 209 196 100 108 64 31 70 31 82 94 98 98 102 106 109 112 114 119 123 125 118 110 106 104 94
249 259 245 248 253 250 262 279 278 275 276 282 192 176 179 136 118 98 68 68 50 58 82 87 90 92 94 97 101 105 111 112 108 104 105 97 91 82
234 247 238 244 257 266 270 272 268 262 253 237 211 186 158 138 130 110 101 53 73 56 81 82 85 82 89 92 93 92 99 97 107 101 91 72 74 74
242 242 244 245 245 252 259 277 285 273 269 229 210 166 139 143 126 100 86 88 69 80 80 69 86 85 88 97 75 96 95 92 83 75 65 50 46 41
232 242 248 252 251 244 138 90 73 63 92 131 139 127 126 122 112 107 100 92 87 79 87 78 76 77 82 86 78 72 80 77 71 72 62 39 46 45
323 262 0 91 99 103 98 91 80 87 95 106 108 112 115 121 118 113 90 93 83 64 72 77 77 83 83 89 98 90 83 82 75 65 65 48 35 31
63 66 72 83 88 83 82 79 77 73 80 86 88 90 91 93 100 102 95 86 93 85 92 98 104 77 58 70 76 71 82 119 89 62 55 44 28 13
70 73 79 82 83 83 83 79 81 83 79 79 80 82 86 85 85 86 90 97 91 81 115 97 136 206 104 115 101 82 70 65 63 56 54 40 20 21
72 76 77 77 79 81 83 84 82 79 79 79 79 77 77 74 79 94 100 87 81 78 87 114 114 126 136 118 84 99 68 59 50 50 49 22 18 17
75 76 74 73 73 73 76 79 77 78 82 84 85 84 85 87 92 91 89 87 82 78 83 87 94 99 95 84 78 44 36 41 32 32 31 19 17 14
68 69 69 68 69 69 70 71 71 70 72 75 79 89 95 94 91 89 86 84 79 73 75 81 91 97 84 72 63 44 38 34 33 29 25 20 13 14
68 65 62 61 61 59 59 64 71 75 77 81 83 86 91 96 95 93 92 89 88 91 88 88 86 84 79 72 62 43 28 27 25 23 30 23 14 13
58 54 54 55 55 55 55 58 66 69 72 78 81 83 83 82 82 82 82 77 69 63 68 79 92 61 64 57 46 42 37 27 20 23 30 19 9 7
58 56 56 54 53 56 56 59 61 69 73 71 72 73 77 77 79 77 73 74 76 76 70 69 73 76 80 61 69 35 45 31 25 29 34 30 13 7
55 55 54 53 57 63 68 71 73 75 76 76 77 79 78 78 76 72 68 66 63 58 52 46 36 24 21 25 15 33 40 37 31 24 20 28 24 16
49 49 50 55 61 67 69 72 73 72 75 76 77 81 81 79 78 78 79 75 72 64 57 52 46 45 70 80 48 40 53 52 40 38 20 14 359 20
49 51 53 58 64 67 69 71 71 71 72 74 76 77 77 79 80 81 79 76 72 70 66 64 58 68 65 61 59 57 39 39 52 54 45 48 44 10
50 55 58 63 68 69 67 66 66 67 70 71 74 76 76 76 75 72 68 66 62 62 63 65 61 58 64 56 54 52 50 41 49 42 55 58 60 61